Hourly Data Report for August 22, 2015

All times are specified in Local Standard Time (LST). Add 1 hour to adjust for Daylight Saving Time where and when it is observed.

TORONTO INTL A
ONTARIO

43°40'36.000" N
79°37'50.000" W
173.40 m
6158731
71624
YYZ

Download Data

Hourly Data (August 2015)
Hourly Data Report for August 22, 2015
Temp Definition
°C
Dew Point Temp Definition
°C
Rel Hum Definition
%
Wind Dir Definition
10's deg

Wind Spd Definition
km/h
Visibility Definition
km
Stn Press Definition
kPa
Hmdx Definition


Wind Chill Definition


Weather Definition


TIME
00:00 Legend Double Dagger 15.8 10.6 71 30 8 24.1 100.01     LegendNANA
01:00 Legend Double Dagger 15.5 10.3 71 3 7 24.1 100.03     Clear
02:00 Legend Double Dagger 14.2 10.5 78 1 8 24.1 100.04     LegendNANA
03:00 Legend Double Dagger 13.6 10.6 82 33 8 24.1 100.07     LegendNANA
04:00 Legend Double Dagger 13.2 10.2 82 32 9 24.1 100.08     Clear
05:00 Legend Double Dagger 12.8 9.8 82 30 6 24.1 100.12     LegendNANA
06:00 Legend Double Dagger 13.9 10.5 80 33 7 24.1 100.16     LegendNANA
07:00 Legend Double Dagger 16.2 12.9 81 36 4 24.1 100.22     Clear
08:00 Legend Double Dagger 19.0 13.7 71 1 9 24.1 100.23     LegendNANA
09:00 Legend Double Dagger 19.8 11.9 60 36 1 24.1 100.20     LegendNANA
10:00 Legend Double Dagger 21.5 11.7 53 36 6 24.1 100.17     Mainly Clear
11:00 Legend Double Dagger 22.1 12.2 53   0 24.1 100.16     LegendNANA
12:00 Legend Double Dagger 22.1 13.3 57 11 14 24.1 100.14 25   LegendNANA
13:00 Legend Double Dagger 22.7 13.6 56 13 14 24.1 100.12 26   Mainly Clear
14:00 Legend Double Dagger 22.9 14.1 57 15 13 24.1 100.06 26   LegendNANA
15:00 Legend Double Dagger 23.0 13.1 53 17 15 24.1 100.02 26   LegendNANA
16:00 Legend Double Dagger 22.6 12.4 52 16 16 24.1 99.98 25   Mainly Clear
17:00 Legend Double Dagger 22.2 12.3 53 15 14 24.1 99.97 25   LegendNANA
18:00 Legend Double Dagger 21.6 12.6 56 14 16 24.1 99.94     LegendNANA
19:00 Legend Double Dagger 20.8 11.8 56 14 10 24.1 99.92     Mostly Cloudy
20:00 Legend Double Dagger 19.7 13.0 65 14 5 24.1 99.92     LegendNANA
21:00 Legend Double Dagger 19.7 13.3 66 14 5 24.1 99.93     LegendNANA
22:00 Legend Double Dagger 19.1 13.8 71 15 3 24.1 99.90     Mainly Clear
23:00 Legend Double Dagger 18.9 13.8 72 36 2 24.1 99.89     LegendNANA

Notes on Data Quality.

Legend

  • E = Estimated
  • M = Missing
  • NA = Not Available
  • ‡ = Partner data that is not subject to review by the National Climate Archives
Date modified: